This demonstration page uses our WeatherBlox Daily Observations layout. Learn more.

Left ArrowRight Arrow

38.88101, -77.10428

Hourly Observations for February 27, 2021

Temp ( °F °C ) Dew Point ( °F °C ) Humidity (%) Winds ( mph kmh ) Pressure ( in mb ) Visibility ( mi km ) Precip ( " mm )
12:52 am 00:52 Cloudy with Light Rain 38 3.3 36 2.2 93 93 NE 5 7 30.33 1027 5 8 0.01 0.25
12:59 am 00:59 Cloudy with Light Rain 38 3.3 36 2.2 93 93 NE 6 9 30.33 1027 6 10 0.00 0.00
1:17 am 01:17 Cloudy with Light Rain 38 3.3 36 2.2 93 93 NE 6 9 30.32 1027 7 11 0.01 0.25
1:38 am 01:38 Cloudy with Light Rain 39 3.9 36 2.2 89 89 NE 6 9 30.33 1027 6 10 0.01 0.25
1:48 am 01:48 Cloudy with Light Rain 39 4 36 2 87 87 NE 7 11 30.32 1027 5 8 0.02 0.51
1:52 am 01:52 Cloudy with Light Rain 39 3.9 36 2.2 89 89 NE 6 9 30.31 1027 5 8 0.03 0.76
2:21 am 02:21 Cloudy with Light Rain 39 3.9 36 2.2 89 89 NE 6 9 30.29 1026 5 8 0.01 0.25
2:52 am 02:52 Cloudy with Light Rain 39 3.9 37 2.8 93 93 NE 7 11 30.27 1025 5 8 0.02 0.51
3:20 am 03:20 Cloudy with Light Rain 39 3.9 37 2.8 93 93 NE 7 11 30.25 1024 4 6 0.01 0.25
3:38 am 03:38 Cloudy with Drizzle 39 3.9 37 2.8 93 93 NNE 9 15 30.24 1024 4 6 0.01 0.25
3:52 am 03:52 Cloudy with Light Rain 39 3.9 37 2.8 93 93 NNE 9 15 30.23 1024 3 5 0.02 0.51
4:14 am 04:14 Cloudy with Drizzle 39 3.9 37 2.8 93 93 NNE 9 15 30.23 1024 5 8 0.01 0.25
4:52 am 04:52 Cloudy with Drizzle 39 3.9 37 2.8 93 93 NE 8 13 30.19 1023 4 6 0.02 0.51
5:52 am 05:52 Cloudy with Drizzle 39 3.9 37 2.8 93 93 N 9 15 30.18 1022 4 6 0.02 0.51
6:52 am 06:52 Cloudy with Drizzle 39 3.9 37 2.8 93 93 N 8 13 30.16 1021 3 5 0.00 0.00
7:52 am 07:52 Cloudy with Light Rain 40 4.4 38 3.3 93 93 Calm 30.15 1021 4 6 0.04 1.02
8:18 am 08:18 Cloudy with Light Rain 40 4.4 37 2.8 89 89 E 5 7 30.13 1020 7 11 0.02 0.51
8:52 am 08:52 Cloudy with Light Rain 40 4.4 38 3.3 93 93 Calm 30.13 1020 10 16 0.03 0.76
9:12 am 09:12 Cloudy with Light Rain 40 4.4 38 3.3 93 93 SE 5 7 30.11 1020 10 16 0.00 0.00
9:52 am 09:52 Cloudy 42 5.6 39 3.9 89 89 W 8 13 30.13 1020 10 16 0.00 0.00
9:55 am 09:55 Cloudy 42 5.6 39 3.9 89 89 W 6 9 30.12 1020 9 14 0.00 0.00
10:52 am 10:52 Cloudy 44 6.7 40 4.4 85 85 W 6 9 30.09 1019 10 16 0.00 0.00
11:06 am 11:06 Cloudy 44 6.7 41 5 89 89 SW 7 11 30.11 1020 10 16 0.00 0.00
11:34 am 11:34 Cloudy 44 6.7 40 4.4 85 85 W 7 11 30.11 1020 10 16 0.00 0.00
11:52 am 11:52 Cloudy 45 7.2 41 5 86 86 WNW 7 11 30.11 1020 10 16 0.00 0.00
12:52 pm 12:52 Cloudy 47 8.3 41 5 80 80 W 12 19 30.10 1019 10 16 0.00 0.00
1:12 pm 13:12 Cloudy 49 9.4 42 5.6 77 77 W 9 15 30.10 1019 10 16 0.00 0.00
1:52 pm 13:52 Mostly Cloudy 50 10 42 5.6 74 74 NW 8 13 30.11 1020 10 16 0.00 0.00
2:25 pm 14:25 Partly Cloudy 52 11.1 43 6.1 72 72 VRB 6 9 30.10 1019 10 16 0.00 0.00
2:52 pm 14:52 Mostly Cloudy 53 11.7 43 6.1 69 69 Calm 30.11 1020 10 16 0.00 0.00
3:52 pm 15:52 Mostly Cloudy 52 11.1 43 6.1 72 72 SSE 3 6 30.12 1020 10 16 0.00 0.00
4:52 pm 16:52 Mostly Cloudy 52 11.1 44 6.7 75 75 S 9 15 30.14 1021 10 16 0.00 0.00
5:52 pm 17:52 Mostly Cloudy 48 8.9 42 5.6 80 80 S 8 13 30.17 1022 10 16 0.00 0.00
6:52 pm 18:52 Mostly Cloudy 48 8.9 43 6.1 83 83 SSE 5 7 30.19 1022 10 16 0.00 0.00
7:52 pm 19:52 Mostly Cloudy 49 9.4 43 6.1 80 80 Calm 30.22 1023 10 16 0.00 0.00
8:52 pm 20:52 Mostly Cloudy 45 7.2 42 5.6 90 90 S 5 7 30.22 1024 10 16 0.00 0.00
9:52 pm 21:52 Cloudy 45 7.2 43 6.1 93 93 S 8 13 30.25 1024 10 16 0.00 0.00
10:52 pm 22:52 Cloudy 45 7.2 42 5.6 90 90 S 8 13 30.27 1025 10 16 0.00 0.00
11:52 pm 23:52 Cloudy 46 7.8 43 6.1 89 89 S 3 6 30.28 1025 10 16 0.00 0.00

Powered by AerisWeather